Volver al catálogo

ARIANE 2 DEB

ActivoGTO
NORAD 42482·DEBRIS·🇫🇷 France

Lanzado Jan 27, 1989 desde Guiana Space Centre

Loading…

TLE

ObsoletoSource: Space-Track

Época: Sep 14, 2026, 02:22 UTC

1 42482U 89006CJ  26257.09911136  .00001469  00000-0  10354-1 0  9999
2 42482  10.3421  29.8639 7104311 123.2585 324.9446  2.37005367 47043

Sigue ARIANE 2 DEB en tiempo real con AllMySat

Download on the App Store